軌道要素
Epoch 2015 Oct. 25.0 TT = JDT 2457320.5
T 2015 Oct. 25.09553 TT MPCW
q 1.5582300 (2000.0) P Q
n 0.15411698 Peri. 162.89933 +0.23891947 +0.96844883
a 3.4453689 Node 120.87259 -0.90029218 +0.24827397
e 0.5477320 Incl. 4.73711 -0.36385640 +0.02160787
P 6.40
From 3050 observations 2001 Dec. 19-2015 May 26, mean residual 0".6.
Nongravitational parameters A1 = -0.06, A2 = -0.0620.
|